This is the latest recevied weather packets stored in our database for station/object YU7OR-2. If no packets are shown the sender has not sent any weather packets the latest 10 day(s).
| Time | Temp. | Humidity | Pressure | Rain* | Wind** | Luminosity | Snow |
|---|---|---|---|---|---|---|---|
| 1777701529 | 13.33° C | 57% | 1020.9 hPa | 0 mm | - | - | - |
| 1777701279 | 12.78° C | 57% | 1020.8 hPa | 0 mm | - | - | - |
| 1777700984 | 12.22° C | 58% | 1020.8 hPa | 0 mm | - | - | - |
| 1777700729 | 11.67° C | 55% | 1020.7 hPa | 0 mm | - | - | - |
| 1777700449 | 11.67° C | 58% | 1020.7 hPa | 0 mm | - | - | - |
| 1777700149 | 11.11° C | 54% | 1020.7 hPa | 0 mm | - | - | - |
| 1777699864 | 11.11° C | 54% | 1020.7 hPa | 0 mm | - | - | - |
| 1777699574 | 11.11° C | 54% | 1020.7 hPa | 0 mm | - | - | - |
| 1777699324 | 11.11° C | 56% | 1020.7 hPa | 0 mm | - | - | - |
| 1777699064 | 11.11° C | 56% | 1020.7 hPa | 0 mm | - | - | - |
| 1777698769 | 10.56° C | 58% | 1020.5 hPa | 0 mm | - | - | - |
| 1777698484 | 10.56° C | 58% | 1020.4 hPa | 0 mm | - | - | - |
| 1777698229 | 10.56° C | 57% | 1020.6 hPa | 0 mm | - | - | - |
| 1777697989 | 10.56° C | 58% | 1020.6 hPa | 0 mm | - | - | - |
| 1777697709 | 10° C | 57% | 1020.4 hPa | 0 mm | - | - | - |
| 1777697424 | 10° C | 57% | 1020.3 hPa | 0 mm | - | - | - |
| 1777697134 | 10° C | 58% | 1020.4 hPa | 0 mm | - | - | - |
| 1777696869 | 9.44° C | 58% | 1020.3 hPa | 0 mm | - | - | - |
| 1777696579 | 9.44° C | 58% | 1020.3 hPa | 0 mm | - | - | - |
| 1777696329 | 9.44° C | 58% | 1020.3 hPa | 0 mm | - | - | - |
| 1777696044 | 9.44° C | 58% | 1020.3 hPa | 0 mm | - | - | - |
| 1777695794 | 8.89° C | 60% | 1020.3 hPa | 0 mm | - | - | - |
| 1777695494 | 8.89° C | 60% | 1020.4 hPa | 0 mm | - | - | - |
| 1777695209 | 8.89° C | 60% | 1020.3 hPa | 0 mm | - | - | - |
| 1777694944 | 8.89° C | 60% | 1020.3 hPa | 0 mm | - | - | - |
* Rain latest hour (hover to see other rain measurements)
** Current wind speed in m/s (hover to see current wind gust speed)